Keahole Point, HI

3:17 AM HST on April 25, 2017 (GMT -1000)
Kona International At Keahole

Weather History for PHKO - July, 2013

Change the Weather History Date:

Wednesday, July 3, 2013

  Actual Average Record
Temperature  
Mean Temperature 78 °F -  
Max Temperature 82 °F 82 °F 90 °F (1986)
Min Temperature 75 °F 72 °F 68 °F (1993)
Cooling Degree Days 14    
Growing Degree Days 28 (Base 50)    
Moisture  
Dew Point 67 °F    
Average Humidity 64    
Maximum Humidity 76    
Minimum Humidity 52    
Precipitation  
Precipitation 0.00 in - - ()
Sea Level Pressure  
Sea Level Pressure 29.96 in    
Wind  
Wind Speed 8 mph (SSW)    
Max Wind Speed 14 mph    
Max Gust Speed -    
Visibility 10 miles    
Events      
Averages and records for this station are not official NWS values.
T = Trace of Precipitation, MM = Missing Value Source: NWS Daily Summary

Daily Weather History Graph

Daily Weather History Graph

Search for Another Location

Airport or City:

Trip Planner

Search our weather history database for the weather conditions in past years. The results will help you decide how hot, cold, wet, or windy it might be!

Date:

Astronomy

Jul. 03, 2013 Rise Set
Actual Time 5:49 AM HST 7:07 PM HST
Civil Twilight 5:25 AM HST 7:31 PM HST
Nautical Twilight 4:56 AM HST 8:00 PM HST
Astronomical Twilight 4:26 AM HST 8:30 PM HST
Moon 2:20 AM HST (7/3) 3:38 PM HST (7/3)
Length of Visible Light 14h 06m
Length of Day
13h 17m
Waning Crescent, 16% of the Moon is Illuminated
Jul 3
Waning Crescent
Jul 7
New
Jul 15
First Quarter
Jul 22
Full
Jul 29
Last Quarter

Hourly Weather History & Observations

Time (HST) Temp. Heat Index Dew Point Humidity Pressure Visibility Wind Dir Wind Speed Gust Speed Precip Events Conditions
12:53 AM 75.9 °F - 68.0 °F 76% 29.94 in 10.0 mi SE 8.1 mph - N/A   Scattered Clouds
1:53 AM 78.1 °F - 66.9 °F 68% 29.93 in 10.0 mi Calm Calm - N/A   Overcast
2:53 AM 78.1 °F - 63.0 °F 60% 29.91 in 10.0 mi Calm Calm - 0.00 in   Overcast
3:53 AM 77.0 °F - 62.1 °F 60% 29.92 in 10.0 mi NE 6.9 mph - N/A   Clear
4:53 AM 75.9 °F - 61.0 °F 60% 29.92 in 10.0 mi North 5.8 mph - N/A   Clear
5:53 AM 77.0 °F - 62.1 °F 60% 29.94 in 10.0 mi NNW 6.9 mph - N/A   Mostly Cloudy
6:53 AM 80.1 °F 81.1 °F 61.0 °F 52% 29.96 in 10.0 mi North 9.2 mph - N/A   Mostly Cloudy
7:53 AM 82.0 °F 83.4 °F 64.0 °F 54% 29.96 in 10.0 mi NNW 9.2 mph - N/A   Mostly Cloudy
8:53 AM 81.0 °F 82.7 °F 64.9 °F 58% 29.97 in 10.0 mi NW 11.5 mph - N/A   Partly Cloudy
9:53 AM 81.0 °F 84.1 °F 69.1 °F 67% 29.98 in 10.0 mi West 11.5 mph - N/A   Mostly Cloudy
10:53 AM 82.9 °F 86.5 °F 69.1 °F 63% 29.98 in 10.0 mi WSW 11.5 mph - N/A   Clear
11:53 AM 82.9 °F 85.8 °F 68.0 °F 60% 29.97 in 10.0 mi WSW 11.5 mph - N/A   Clear
12:53 PM 82.9 °F 86.5 °F 69.1 °F 63% 29.96 in 10.0 mi West 11.5 mph - N/A   Mostly Cloudy
1:53 PM 82.9 °F 86.5 °F 69.1 °F 63% 29.95 in 10.0 mi West 9.2 mph - N/A   Clear
2:53 PM 82.9 °F 85.8 °F 68.0 °F 60% 29.94 in 10.0 mi SW 6.9 mph - N/A   Clear
3:53 PM 82.9 °F 85.8 °F 68.0 °F 60% 29.93 in 10.0 mi South 10.4 mph - N/A   Scattered Clouds
4:53 PM 82.9 °F 85.8 °F 68.0 °F 60% 29.92 in 10.0 mi South 13.8 mph - N/A   Clear
5:53 PM 82.0 °F 84.5 °F 66.9 °F 60% 29.92 in 10.0 mi South 12.7 mph - N/A   Clear
6:53 PM 81.0 °F 83.8 °F 68.0 °F 65% 29.94 in 10.0 mi South 12.7 mph - N/A   Clear
7:53 PM 80.1 °F 82.9 °F 69.1 °F 69% 29.96 in 10.0 mi South 12.7 mph - N/A   Overcast
8:53 PM 80.1 °F 82.9 °F 69.1 °F 69% 29.98 in 10.0 mi SSE 9.2 mph - N/A   Overcast
9:53 PM 79.0 °F - 69.1 °F 72% 29.99 in 10.0 mi SE 9.2 mph - N/A   Partly Cloudy
10:46 PM 78.8 °F - 69.8 °F 74% 29.99 in 10.0 mi South 5.8 mph - N/A   Overcast
10:53 PM 79.0 °F - 69.1 °F 72% 29.99 in 10.0 mi South 8.1 mph - N/A   Overcast
11:32 PM 78.8 °F - 69.8 °F 74% 29.99 in 10.0 mi SSW 6.9 mph - N/A   Overcast
11:53 PM 78.1 °F - 69.1 °F 74% 29.99 in 10.0 mi South 5.8 mph - N/A   Mostly Cloudy